Location: Unnamed
(47.6264°N, 122.3366°W)
Time: 13:22:52
(UTC-07:00)

UPPER FREE FLYER - Pass Details

Date: 06 August 2020
Orbit: 571 x 589 km, 97.7° (Epoch: 01 October)

Event Time Altitude Azimuth Distance (km) Brightness Sun altitude
Exits shadow 22:00:14 17° 108° (ESE) 1,470 ? -12.7°
Maximum altitude 22:02:17 25° 66° (ENE) 1,166 ? -12.9°
Drops below altitude 10° 22:05:40 10° 10° (N) 1,895 ? -13.4°
Sets 22:08:06 0° 358° (N) 2,801 ? -13.7°
